Find OneWeb SL0390

NORAD ID: 50470 Int'l Des: 2021-132 Owner: ONEWEBN Country: UK Constellation: oneweb operational
LEOCIRCULARPOLARONEWEB_TYPE

Live Position

Loading 3D Globe...

About OneWeb SL0390

Description loading...

Upcoming Passes

Passes for default location (London). Set your location on the main map for personalized predictions.

Altitude History

Loading altitude history...

Two-Line Element Set

1 50470U 21132B 26126.43551163 .00000047 00000-0 89136-4 0 9992
2 50470 87.9174 14.1674 0001590 82.9711 277.1601 13.17649097212589
Epoch: May 6, 2026 • Age: 12 hours

Current Status

Altitude 1219.5 km
Velocity 7.24 km/s
Sub-Earth Point -64.98°S, 161.6°E
Launch Date Dec 27, 2021
Age 4.3 years
Type internet

Technical Details

Classification Payload
Mass 148.00 kg
Dry Mass 140.00 kg
Total Mass 148.00 kg
Length 1.30 m
Diameter 1.00 m
Span 5.00 m
Shape Trapezoid+2 pan
Manufacturer ONEWUS
Bus Type ARROW
Phase Status In Orbit
Owner/State ONEWEBN/UK

Most Searched